Location: Eboldshausen
(51.7766°N, 10.0050°E)
Time: 17:45:19
(UTC+00:00)

Cosmos 2016 Rocket - Pass Details

Date: 15 November 2025
Orbit: 946 x 999 km, 83.0° (Epoch: 09 December)

Event Time Altitude Azimuth Distance (km) Brightness Sun altitude
Rises 16:55:36 0° 198° (SSW) 3,674 7.5 -13.2°
Reaches altitude 10° 16:58:07 10° 201° (SSW) 2,737 6.8 -13.6°
Maximum altitude 17:04:22 66° 283° (WNW) 1,084 4.5 -14.5°
Drops below altitude 10° 17:10:44 10° 6° (N) 2,779 6.2 -15.5°
Sets 17:13:19 0° 9° (N) 3,735 6.9 -15.9°
